| time (UTC) | temp F | wind direction | speed MPH | gust MPH | rain 1hr in | rain 24hr in | rain mn in | humidity % | barometer mb |
| 20260506044530 | 59 | 273 | 10.0 | 15.0 | 0.00 | 0.00 | 0.00 | 75 | 1014.2 |
| 20260506034529 | 60 | 276 | 7.0 | 15.0 | 0.00 | 0.00 | 0.00 | 71 | 1013.4 |
| 20260506033106 | 61 | 267 | 7.0 | 14.0 | 0.00 | 0.00 | 0.00 | 70 | 1013.2 |
| 20260506031529 | 62 | 270 | 7.0 | 15.0 | 0.00 | 0.00 | 0.00 | 69 | 1013.1 |
| 20260506030033 | 63 | 267 | 7.0 | 14.0 | 0.00 | 0.00 | 0.00 | 67 | 1012.9 |
| 20260506024543 | 64 | 268 | 7.0 | 16.0 | 0.00 | 0.00 | 0.00 | 65 | 1012.7 |
| 20260506021532 | 66 | 262 | 9.0 | 19.0 | 0.00 | 0.00 | 0.00 | 62 | 1012.6 |
| 20260506020030 | 67 | 268 | 8.0 | 14.0 | 0.00 | 0.00 | 0.00 | 60 | 1012.5 |
| 20260506014531 | 68 | 269 | 8.0 | 15.0 | 0.00 | 0.00 | 0.00 | 57 | 1012.5 |
| 20260506013029 | 70 | 254 | 5.0 | 16.0 | 0.00 | 0.00 | 0.00 | 56 | 1012.4 |
| 20260506011606 | 70 | 251 | 7.0 | 18.0 | 0.00 | 0.00 | 0.00 | 55 | 1012.3 |
| 20260506010031 | 70 | 251 | 7.0 | 21.0 | 0.00 | 0.00 | 0.00 | 55 | 1012.3 |
| 20260506003029 | 70 | 262 | 10.0 | 18.0 | 0.00 | 0.00 | 0.00 | 56 | 1012.2 |
| 20260506000032 | 70 | 260 | 11.0 | 20.0 | 0.00 | 0.00 | 0.00 | 57 | 1012.3 |
| 20260505234529 | 70 | 265 | 12.0 | 21.0 | 0.00 | 0.00 | 0.00 | 56 | 1012.3 |
| 20260505233032 | 70 | 262 | 12.0 | 20.0 | 0.00 | 0.00 | 0.00 | 56 | 1012.5 |
| 20260505223029 | 70 | 271 | 11.0 | 21.0 | 0.00 | 0.00 | 0.00 | 56 | 1012.8 |
| 20260505221532 | 70 | 263 | 12.0 | 23.0 | 0.00 | 0.00 | 0.00 | 55 | 1013.0 |
| 20260505220030 | 70 | 261 | 11.0 | 19.0 | 0.00 | 0.00 | 0.00 | 56 | 1013.1 |
| 20260505214533 | 70 | 265 | 10.0 | 17.0 | 0.00 | 0.00 | 0.00 | 56 | 1013.2 |
| 20260505213033 | 70 | 265 | 12.0 | 22.0 | 0.00 | 0.00 | 0.00 | 56 | 1013.3 |
| 20260505211531 | 70 | 261 | 11.0 | 22.0 | 0.00 | 0.00 | 0.00 | 56 | 1013.4 |
| 20260505210031 | 69 | 267 | 10.0 | 19.0 | 0.00 | 0.00 | 0.00 | 56 | 1013.5 |
| 20260505204607 | 70 | 266 | 10.0 | 20.0 | 0.00 | 0.00 | 0.00 | 56 | 1013.6 |
| 20260505203033 | 70 | 266 | 10.0 | 18.0 | 0.00 | 0.00 | 0.00 | 56 | 1013.7 |
| 20260505201529 | 70 | 265 | 9.0 | 17.0 | 0.00 | 0.00 | 0.00 | 55 | 1013.8 |
| 20260505200033 | 70 | 261 | 9.0 | 18.0 | 0.00 | 0.00 | 0.00 | 54 | 1013.9 |
| 20260505194529 | 70 | 246 | 9.0 | 18.0 | 0.00 | 0.00 | 0.00 | 54 | 1014.0 |
| 20260505193030 | 69 | 252 | 9.0 | 15.0 | 0.00 | 0.00 | 0.00 | 56 | 1014.1 |
| 20260505191605 | 68 | 262 | 9.0 | 19.0 | 0.00 | 0.00 | 0.00 | 57 | 1014.1 |
| 20260505190032 | 68 | 262 | 10.0 | 17.0 | 0.00 | 0.00 | 0.00 | 57 | 1014.2 |
| 20260505183030 | 67 | 256 | 10.0 | 17.0 | 0.00 | 0.00 | 0.00 | 58 | 1014.4 |
| 20260505181540 | 66 | 258 | 8.0 | 16.0 | 0.00 | 0.00 | 0.00 | 59 | 1014.4 |
| 20260505180029 | 65 | 251 | 9.0 | 16.0 | 0.00 | 0.00 | 0.00 | 59 | 1014.4 |
| 20260505174601 | 65 | 249 | 11.0 | 20.0 | 0.00 | 0.00 | 0.00 | 61 | 1014.4 |
| 20260505173030 | 64 | 248 | 11.0 | 24.0 | 0.00 | 0.00 | 0.00 | 62 | 1014.4 |
| 20260505171528 | 63 | 248 | 11.0 | 22.0 | 0.00 | 0.00 | 0.00 | 64 | 1014.4 |
| 20260505170034 | 62 | 253 | 12.0 | 20.0 | 0.00 | 0.00 | 0.00 | 65 | 1014.4 |
| 20260505164531 | 62 | 251 | 11.0 | 18.0 | 0.00 | 0.00 | 0.00 | 66 | 1014.4 |
| 20260505163029 | 61 | 248 | 12.0 | 20.0 | 0.00 | 0.00 | 0.00 | 67 | 1014.3 |
| 20260505153030 | 59 | 240 | 10.0 | 21.0 | 0.00 | 0.00 | 0.00 | 73 | 1014.1 |
| 20260505151532 | 59 | 250 | 9.0 | 20.0 | 0.00 | 0.00 | 0.00 | 73 | 1014.1 |
| 20260505124608 | 57 | 236 | 9.0 | 23.0 | 0.00 | 0.00 | 0.00 | 78 | 1012.9 |
| 20260505123144 | 57 | 230 | 11.0 | 20.0 | 0.00 | 0.00 | 0.00 | 77 | 1012.8 |
| 20260505121530 | 57 | 243 | 10.0 | 21.0 | 0.00 | 0.00 | 0.00 | 77 | 1012.6 |
| 20260505120031 | 57 | 241 | 10.0 | 18.0 | 0.00 | 0.00 | 0.00 | 77 | 1012.5 |
| 20260505113034 | 58 | 230 | 9.0 | 20.0 | 0.00 | 0.00 | 0.00 | 76 | 1012.6 |
| 20260505110107 | 58 | 258 | 5.0 | 15.0 | 0.00 | 0.00 | 0.00 | 76 | 1012.3 |
| 20260505101531 | 59 | 223 | 12.0 | 20.0 | 0.00 | 0.00 | 0.00 | 74 | 1012.0 |
| 20260505100107 | 60 | 235 | 12.0 | 19.0 | 0.00 | 0.00 | 0.00 | 73 | 1011.9 |
| 20260505094530 | 60 | 235 | 9.0 | 21.0 | 0.00 | 0.00 | 0.00 | 73 | 1011.8 |
| 20260505093031 | 61 | 238 | 12.0 | 23.0 | 0.00 | 0.00 | 0.00 | 73 | 1011.8 |
| 20260505091529 | 61 | 238 | 12.0 | 23.0 | 0.00 | 0.00 | 0.00 | 72 | 1011.6 |
| 20260505090030 | 62 | 229 | 11.0 | 21.0 | 0.00 | 0.00 | 0.00 | 72 | 1011.3 |
| 20260505084531 | 62 | 232 | 8.0 | 18.0 | 0.00 | 0.00 | 0.00 | 73 | 1011.2 |
| 20260505083116 | 62 | 233 | 8.0 | 16.0 | 0.00 | 0.00 | 0.00 | 73 | 1011.3 |
| 20260505081530 | 62 | 259 | 5.0 | 14.0 | 0.00 | 0.00 | 0.00 | 73 | 1011.2 |
| 20260505080031 | 63 | 268 | 2.0 | 7.0 | 0.00 | 0.00 | 0.00 | 72 | 1011.2 |
| 20260505074530 | 63 | 270 | 4.0 | 7.0 | 0.00 | 0.00 | 0.00 | 71 | 1011.0 |
| 20260505073031 | 64 | 258 | 5.0 | 14.0 | 0.00 | 0.00 | 0.00 | 71 | 1010.9 |
| 20260505070107 | 64 | 267 | 6.0 | 13.0 | 0.00 | 0.00 | 0.00 | 69 | 1010.7 |
| 20260505064532 | 65 | 261 | 5.0 | 12.0 | 0.00 | 0.00 | 0.00 | 69 | 1010.6 |
| 20260505063029 | 65 | 268 | 6.0 | 11.0 | 0.00 | 0.00 | 0.00 | 68 | 1010.4 |
| 20260505061530 | 65 | 262 | 7.0 | 13.0 | 0.00 | 0.00 | 0.00 | 68 | 1010.4 |
| 20260505054530 | 66 | 266 | 7.0 | 11.0 | 0.00 | 0.00 | 0.00 | 66 | 1010.4 |